Location: Lake Zurich
(42.1970°N, 88.0930°W)
Time: 02:59:14
(UTC-06:00)

Amateur Radio Satellites - All Passes

Search period start: 06 March 2015 02:29
Search period end: 07 March 2015 02:29
Location: Lake Zurich, 42.1970°N, 88.0930°W

Satellite Date Start Highest point End Downlink Frequencies (MHz)
Time Altitude Azimuth
Gurwin Techsat 1B 06 Mar 02:32:09 02:37:30 79° 103° (ESE) 02:42:49 435.225
Oscar 19 06 Mar 02:32:47 02:37:09 28° 293° (WNW) 02:41:25 437.125/150
STARS 06 Mar 02:33:38 02:37:53 44° 261° (W) 02:42:07 437.465
KKS-1 06 Mar 02:36:20 02:40:12 28° 265° (W) 02:44:01 437.445
MOZHAYETS 4 06 Mar 02:38:26 02:41:14 17° 65° (ENE) 02:44:11
ITAMSAT 1 06 Mar 02:38:37 02:43:50 71° 287° (WNW) 02:49:00 435.822/435.867
HORYU 2 06 Mar 02:54:32 02:58:34 34° 97° (E) 03:02:39 437.375
SO-50 06 Mar 02:58:34 03:00:09 11° 330° (NNW) 03:01:35 436.795
AIST 2 06 Mar 03:02:43 03:05:21 16° 249° (WSW) 03:07:47 435.215
JAS-2 06 Mar 03:03:50 03:09:36 24° 89° (E) 03:15:47 435.910
PCSat 06 Mar 03:08:06 03:11:38 18° 40° (NE) 03:15:16 145.827
AO-7 06 Mar 03:13:30 03:20:45 34° 95° (E) 03:28:08 29.400- 29.500
YUBILEINY 06 Mar 03:35:31 03:44:03 54° 269° (W) 03:52:29 435.215
AUBIESAT-1 06 Mar 03:48:58 03:52:10 43° 256° (WSW) 03:55:32 437.475
M-CUBED/EXP-1 PRIME 06 Mar 03:50:23 03:53:29 36° 257° (WSW) 03:56:45 437.505
RS-15 06 Mar 03:50:54 03:59:13 23° 9° (N) 04:07:52 29.354- 29.394
MOZHAYETS 4 06 Mar 04:13:38 04:18:06 53° 261° (W) 04:22:36
Gurwin Techsat 1B 06 Mar 04:13:50 04:16:54 15° 299° (WNW) 04:19:44 435.225
HORYU 2 06 Mar 04:31:30 04:35:06 24° 293° (WNW) 04:38:37 437.375
STRAND 1 06 Mar 04:46:00 04:49:37 20° 64° (ENE) 04:53:24 437.568
CUBESAT XI-V 06 Mar 04:46:42 04:50:38 28° 68° (ENE) 04:54:41 437.345
JAS-2 06 Mar 04:47:43 04:55:17 75° 287° (WNW) 05:03:07 435.910
PCSat 06 Mar 04:50:25 04:55:53 89° 219° (SW) 05:01:18 145.827
Cubesat XI-IV 06 Mar 04:56:42 04:59:22 14° 88° (E) 05:02:19 437.490
CUTE-I 06 Mar 05:04:05 05:07:20 17° 89° (E) 05:10:48 437.470
AO-7 06 Mar 05:05:53 05:13:58 56° 295° (WNW) 05:21:56 29.400- 29.500
PRISM 06 Mar 05:30:51 05:35:00 83° 76° (ENE) 05:39:12 437.425
AIST 1 06 Mar 05:38:57 05:42:14 22° 89° (E) 05:45:40
RS-15 06 Mar 06:04:48 06:15:31 46° 41° (NE) 06:26:48 29.354- 29.394
STRAND 1 06 Mar 06:23:26 06:28:28 54° 260° (W) 06:33:32 437.568
CUBESAT XI-V 06 Mar 06:23:49 06:28:01 31° 265° (W) 06:32:13 437.345
JAS-2 06 Mar 06:34:42 06:39:21 17° 303° (WNW) 06:43:46 435.910
Cubesat XI-IV 06 Mar 06:34:47 06:40:09 74° 287° (WNW) 06:45:30 437.490
PCSat 06 Mar 06:36:30 06:38:36 12° 256° (WSW) 06:40:22 145.827
CUTE-I 06 Mar 06:42:39 06:47:58 64° 287° (WNW) 06:53:14 437.470
AO-7 06 Mar 07:01:19 07:05:08 14° 315° (NW) 07:08:33 29.400- 29.500
ISS 06 Mar 07:05:58 07:08:59 39° 140° (SE) 07:12:03 145.825
AIST 1 06 Mar 07:15:49 07:19:46 32° 285° (WNW) 07:23:43
BRITE-PL 06 Mar 07:28:50 07:31:47 18° 90° (E) 07:34:47 437.365/2234.400
O/OREOS (USA 219) 06 Mar 07:40:17 07:44:09 28° 104° (ESE) 07:48:08 437.305
GONETS M04 06 Mar 07:48:05 07:56:31 50° 74° (ENE) 08:05:01
COMPASS 1 06 Mar 07:52:04 07:54:01 13° 89° (E) 07:56:12 437.405
HO-68 06 Mar 08:01:26 08:07:53 35° 96° (E) 08:14:24 435.675
SO-50 06 Mar 08:04:46 08:08:50 25° 43° (NE) 08:12:58 436.795
RS-15 06 Mar 08:17:19 08:28:35 63° 244° (WSW) 08:40:16 29.354- 29.394
Cubesat XI-IV 06 Mar 08:17:59 08:19:26 11° 303° (WNW) 08:20:35 437.490
SEEDS 06 Mar 08:23:49 08:27:45 36° 97° (E) 08:31:42 437.485
DELFI C3 06 Mar 08:31:18 08:32:22 11° 88° (E) 08:33:40 145.870
CANX-2 06 Mar 08:33:14 08:37:29 62° 101° (E) 08:41:42 2200.000
CUBEBUG 2 06 Mar 08:40:53 08:42:55 14° 90° (E) 08:45:09 437.445
ISS 06 Mar 08:42:34 08:45:29 30° 337° (NNW) 08:48:25 145.825
DUCHIFAT 1 06 Mar 08:42:43 08:43:59 11° 63° (ENE) 08:45:28 145.980
CINEMA 3 06 Mar 08:45:35 08:49:09 28° 95° (E) 08:52:47 145.822/145.860
GOMX 1 06 Mar 08:50:40 08:55:01 87° 283° (WNW) 08:59:10 467.674
CUTE 1.7 + AOD 2 06 Mar 08:51:13 08:55:30 89° 102° (ESE) 08:59:47 437.475
UNISAT 6 06 Mar 08:51:49 08:55:23 26° 69° (ENE) 08:58:59 437.425
FUNcube-1 06 Mar 09:00:11 09:02:31 15° 90° (E) 09:05:02 145.935
ZACube-1 06 Mar 09:02:44 09:05:19 16° 91° (E) 09:08:03 437.345
UKube-1 06 Mar 09:03:00 09:05:18 14° 90° (E) 09:07:47 .
POPSAT HIP 1 06 Mar 09:04:11 09:07:13 20° 67° (ENE) 09:10:22 437.405
POLYITAN 1 06 Mar 09:05:38 09:08:45 21° 67° (ENE) 09:11:59 437.675
BRITE-PL 06 Mar 09:06:28 09:10:38 39° 289° (WNW) 09:14:33 437.365/2234.400
DOVE 4 06 Mar 09:06:36 09:10:51 85° 287° (WNW) 09:14:59 437.250
TIGRISAT 06 Mar 09:14:19 09:18:26 43° 72° (ENE) 09:22:31 435.000
O/OREOS (USA 219) 06 Mar 09:19:30 09:23:33 30° 302° (WNW) 09:27:36 437.305
AAUSAT CUBESAT 2 06 Mar 09:20:08 09:24:20 71° 285° (WNW) 09:28:31 437.432
NANOSAT C BR1 06 Mar 09:24:54 09:28:40 31° 70° (ENE) 09:32:29 145.865
COMPASS 1 06 Mar 09:26:01 09:30:08 53° 286° (WNW) 09:34:14 437.405
ANTELSAT 06 Mar 09:29:56 09:34:16 66° 75° (ENE) 09:38:32 437.575/2403.000
UWE-3 06 Mar 09:29:57 09:33:52 40° 98° (E) 09:37:50 435.000/436.395/437.385
CUSAT 1 06 Mar 09:31:10 09:32:40 14° 72° (ENE) 09:34:17 437.405
Oscar 11 06 Mar 09:41:51 09:46:13 88° 280° (W) 09:50:33 145.826/435.025
SO-50 06 Mar 09:44:53 09:49:43 52° 241° (WSW) 09:54:28 436.795
GONETS M04 06 Mar 09:45:21 09:53:11 37° 274° (W) 10:00:53
BUGSAT 1 06 Mar 09:47:46 09:51:47 42° 72° (ENE) 09:55:51 437.445
HO-68 06 Mar 09:48:58 09:55:47 47° 294° (WNW) 10:02:32 435.675
QB50P1 06 Mar 09:58:17 10:02:33 75° 75° (ENE) 10:06:50 145.935-145.965
SEEDS 06 Mar 10:00:12 10:03:22 20° 293° (WNW) 10:06:26 437.485
QB50P2 06 Mar 10:03:34 10:07:51 87° 77° (ENE) 10:12:10 145.880/145.840
DELFI C3 06 Mar 10:03:59 10:08:02 60° 285° (WNW) 10:12:04 145.870
HUMSAT D 06 Mar 10:09:12 10:13:10 46° 99° (E) 10:17:10 437.325/437.525
CANX-2 06 Mar 10:10:55 10:12:58 13° 296° (WNW) 10:14:50 2200.000
DX 1 06 Mar 10:13:07 10:17:31 89° 121° (ESE) 10:21:52 434.975-435.025
DUCHIFAT 1 06 Mar 10:15:03 10:19:19 73° 258° (WSW) 10:23:36 145.980
CUBEBUG 2 06 Mar 10:15:58 10:20:00 49° 287° (WNW) 10:24:02 437.445
ISS 06 Mar 10:20:37 10:22:40 15° 356° (N) 10:24:42 145.825
CINEMA 3 06 Mar 10:22:57 10:26:20 24° 291° (WNW) 10:29:38 145.822/145.860
CUBEBUG 1 06 Mar 10:25:07 10:28:28 22° 93° (E) 10:31:53 437.445
UNISAT 6 06 Mar 10:28:18 10:32:08 29° 264° (W) 10:35:53 437.425
RS-15 06 Mar 10:34:17 10:39:09 13° 262° (W) 10:42:56 29.354- 29.394
AISAT 06 Mar 10:34:58 10:39:24 64° 101° (ESE) 10:43:47 437.250
FUNcube-1 06 Mar 10:35:12 10:39:11 45° 287° (WNW) 10:43:10 145.935
UKube-1 06 Mar 10:37:36 10:41:51 52° 288° (WNW) 10:46:03 .
ZACube-1 06 Mar 10:38:01 10:41:57 41° 288° (WNW) 10:45:53 437.345
POPSAT HIP 1 06 Mar 10:38:51 10:42:54 39° 262° (W) 10:46:55 437.405
POLYITAN 1 06 Mar 10:40:31 10:44:30 36° 263° (W) 10:48:28 437.675
VELOX 1 06 Mar 10:42:30 10:46:58 75° 102° (ESE) 10:51:23 145.980
TIGRISAT 06 Mar 10:52:30 10:55:27 17° 269° (W) 10:58:13 435.000
50 SAT 06 Mar 10:58:45 11:02:40 64° 285° (WNW) 11:06:36 437.505
NANOSAT C BR1 06 Mar 11:01:09 11:04:36 23° 267° (W) 11:07:58 145.865
UWE-3 06 Mar 11:07:20 11:10:11 18° 293° (WNW) 11:12:56 435.000/436.395/437.385
DANDE 06 Mar 11:07:50 11:09:51 20° 265° (W) 11:11:54 436.750
ANTELSAT 06 Mar 11:10:11 11:11:36 11° 272° (W) 11:12:43 437.575/2403.000
ESTCUBE 1 06 Mar 11:13:23 11:17:58 80° 103° (ESE) 11:22:31 437.505/2401.250
CUSAT 1 06 Mar 11:14:19 11:15:25 12° 266° (W) 11:16:27 437.405
BUGSAT 1 06 Mar 11:24:34 11:27:31 17° 269° (W) 11:30:19 437.445
HUMSAT D 06 Mar 11:46:08 11:48:38 15° 294° (WNW) 11:51:00 437.325/437.525
ISS 06 Mar 11:57:22 11:59:57 21° 17° (NNE) 12:02:32 145.825
CUBEBUG 1 06 Mar 12:00:56 12:04:58 35° 290° (WNW) 12:08:55 437.445
TISAT 1 06 Mar 12:05:39 12:09:51 60° 101° (E) 12:14:00 437.305
Oscar 19 06 Mar 12:10:26 12:15:26 56° 72° (ENE) 12:20:28 437.125/150
BEESAT 06 Mar 12:11:14 12:12:18 11° 87° (E) 12:13:41 436.000
AISAT 06 Mar 12:13:15 12:15:32 14° 297° (WNW) 12:17:38 437.250
Gurwin Techsat 1B 06 Mar 12:16:12 12:19:36 18° 62° (ENE) 12:23:12 435.225
SPROUT 06 Mar 12:16:28 12:20:47 89° 301° (WNW) 12:25:04 437.525
ITAMSAT 1 06 Mar 12:18:59 12:23:06 25° 65° (ENE) 12:27:20 435.822/435.867
VELOX 1 06 Mar 12:21:16 12:23:00 12° 298° (WNW) 12:24:30 145.980
AO-7 06 Mar 12:27:19 12:29:40 12° 43° (NE) 12:32:29 29.400- 29.500
ITUPSAT 1 06 Mar 12:39:09 12:42:48 22° 92° (E) 12:46:34 437.325
ESTCUBE 1 06 Mar 12:52:32 12:54:16 12° 298° (WNW) 12:55:47 437.505/2401.250
ISS 06 Mar 13:33:29 13:36:44 87° 211° (SSW) 13:39:58 145.825
SWISSCUBE 06 Mar 13:38:11 13:43:03 88° 280° (W) 13:47:51 437.505
TISAT 1 06 Mar 13:43:10 13:45:13 13° 296° (WNW) 13:47:04 437.305
BEESAT 06 Mar 13:46:02 13:50:52 80° 284° (WNW) 13:55:40 436.000
Oscar 19 06 Mar 13:51:41 13:55:13 18° 270° (W) 13:58:33 437.125/150
HORYU 2 06 Mar 13:53:32 13:57:29 34° 70° (ENE) 14:01:30 437.375
Gurwin Techsat 1B 06 Mar 13:53:51 13:59:07 65° 258° (WSW) 14:04:26 435.225
ITAMSAT 1 06 Mar 13:57:22 14:02:22 44° 262° (W) 14:07:23 435.822/435.867
AO-7 06 Mar 14:12:48 14:20:39 49° 64° (ENE) 14:28:34 29.400- 29.500
ITUPSAT 1 06 Mar 14:16:21 14:20:56 42° 289° (WNW) 14:25:25 437.325
STARS 06 Mar 14:23:07 14:27:01 31° 96° (E) 14:30:57 437.465
KKS-1 06 Mar 14:26:17 14:30:38 53° 100° (E) 14:34:59 437.445
YUBILEINY 06 Mar 14:40:45 14:48:30 39° 87° (E) 14:56:28 435.215
JAS-2 06 Mar 15:00:50 15:06:17 51° 69° (ENE) 15:12:28 435.910
BEESAT 2 06 Mar 15:01:52 15:04:14 15° 111° (ESE) 15:06:46 435.950
VERMONT LUNAR 06 Mar 15:09:54 15:12:36 21° 154° (SSE) 15:15:21 437.305
SWISSCUBE 06 Mar 15:18:46 15:20:15 11° 300° (WNW) 15:21:28 437.505
AUBIESAT-1 06 Mar 15:30:28 15:32:12 12° 95° (E) 15:34:13 437.475
HORYU 2 06 Mar 15:30:41 15:34:15 23° 267° (W) 15:37:44 437.375
M-CUBED/EXP-1 PRIME 06 Mar 15:31:40 15:34:00 14° 96° (E) 15:36:38 437.505
PHONESAT 2.4 06 Mar 15:44:36 15:47:19 20° 153° (SSE) 15:50:05 2401.200-2431.200
STARS 06 Mar 15:59:48 16:03:24 24° 293° (WNW) 16:06:54 437.465
KKS-1 06 Mar 16:04:09 16:06:55 16° 296° (WNW) 16:09:30 437.445
AO-7 06 Mar 16:05:53 16:13:38 40° 263° (W) 16:21:17 29.400- 29.500
BEESAT 3 06 Mar 16:07:25 16:11:31 89° 128° (SE) 16:15:42 437.485
MOZHAYETS 4 06 Mar 16:08:23 16:12:36 34° 96° (E) 16:16:51
Cubesat XI-IV 06 Mar 16:18:35 16:22:56 26° 65° (ENE) 16:27:24 437.490
CUTE-I 06 Mar 16:26:00 16:30:33 30° 67° (ENE) 16:35:13 437.470
YUBILEINY 06 Mar 16:36:49 16:45:13 48° 287° (WNW) 16:53:38 435.215
BEESAT 2 06 Mar 16:37:59 16:42:01 52° 307° (NW) 16:46:07 435.950
VERMONT LUNAR 06 Mar 16:46:43 16:50:08 56° 170° (S) 16:53:34 437.305
JAS-2 06 Mar 16:47:22 16:51:56 24° 272° (W) 16:56:43 435.910
AIST 2 06 Mar 16:59:28 17:03:44 83° 303° (WNW) 17:08:04 435.215
AUBIESAT-1 06 Mar 17:03:05 17:07:26 72° 291° (WNW) 17:12:05 437.475
M-CUBED/EXP-1 PRIME 06 Mar 17:04:55 17:09:14 62° 290° (WNW) 17:13:51 437.505
PRISM 06 Mar 17:15:25 17:16:41 11° 88° (E) 17:18:11 437.425
PHONESAT 2.4 06 Mar 17:21:49 17:25:23 54° 168° (SSE) 17:28:57 2401.200-2431.200
AIST 1 06 Mar 17:21:58 17:26:23 64° 80° (E) 17:30:43
MOZHAYETS 4 06 Mar 17:45:53 17:49:43 25° 292° (WNW) 17:53:27
BEESAT 3 06 Mar 17:48:07 17:50:16 13° 323° (NW) 17:52:18 437.485
O/OREOS (USA 219) 06 Mar 17:49:06 17:53:40 60° 65° (ENE) 17:58:10 437.305
Cubesat XI-IV 06 Mar 17:57:44 18:02:50 43° 262° (W) 18:07:58 437.490
CUTE-I 06 Mar 18:05:35 18:10:33 37° 263° (W) 18:15:31 437.470
CUBESAT XI-V 06 Mar 18:19:28 18:24:11 63° 101° (E) 18:28:49 437.345
GOMX 1 06 Mar 18:23:24 18:25:55 14° 64° (ENE) 18:28:36 467.674
VERMONT LUNAR 06 Mar 18:24:26 18:27:54 62° 187° (S) 18:31:21 437.305
HO-68 06 Mar 18:31:09 18:37:00 29° 61° (ENE) 18:43:01 435.675
STRAND 1 06 Mar 18:33:26 18:38:25 49° 99° (E) 18:43:23 437.568
DOVE 4 06 Mar 18:37:46 18:39:44 13° 64° (ENE) 18:41:55 437.250
BRITE-PL 06 Mar 18:38:51 18:43:31 29° 69° (ENE) 18:48:03 437.365/2234.400
AIST 2 06 Mar 18:40:55 18:43:05 13° 324° (NW) 18:45:07 435.215
COMPASS 1 06 Mar 18:45:50 18:46:37 11° 63° (ENE) 18:47:39 437.405
PRISM 06 Mar 18:48:29 18:52:41 63° 286° (WNW) 18:56:51 437.425
PHONESAT 2.4 06 Mar 19:00:05 19:03:42 65° 186° (S) 19:07:19 2401.200-2431.200
AIST 1 06 Mar 19:02:07 19:03:31 11° 275° (W) 19:04:41
SEEDS 06 Mar 19:16:52 19:20:23 28° 70° (ENE) 19:24:00 437.485
CANX-2 06 Mar 19:26:45 19:30:46 46° 73° (ENE) 19:34:51 2200.000
O/OREOS (USA 219) 06 Mar 19:30:13 19:32:37 14° 260° (W) 19:34:47 437.305
PCSat 06 Mar 19:32:16 19:37:40 78° 118° (ESE) 19:43:08 145.827
CUBEBUG 2 06 Mar 19:40:14 19:42:32 14° 65° (ENE) 19:44:58 437.445
CUTE 1.7 + AOD 2 06 Mar 19:44:31 19:48:41 67° 75° (ENE) 19:52:53 437.475
CINEMA 3 06 Mar 19:47:44 19:51:48 31° 70° (ENE) 19:55:46 145.822/145.860
FUNcube-1 06 Mar 19:57:21 19:59:33 14° 65° (ENE) 20:01:55 145.935
GOMX 1 06 Mar 19:58:15 20:03:35 80° 257° (WSW) 20:08:37 467.674
CUBESAT XI-V 06 Mar 19:58:23 20:01:09 15° 297° (WNW) 20:03:44 437.345
UKube-1 06 Mar 19:59:00 20:01:21 15° 64° (ENE) 20:03:51 .
ZACube-1 06 Mar 20:00:01 20:02:29 16° 66° (ENE) 20:05:05 437.345
VERMONT LUNAR 06 Mar 20:02:29 20:05:31 27° 203° (SSW) 20:08:30 437.305
AAUSAT CUBESAT 2 06 Mar 20:11:26 20:15:34 82° 77° (ENE) 20:19:44 437.432
DOVE 4 06 Mar 20:11:57 20:17:02 82° 258° (WSW) 20:21:51 437.250
STRAND 1 06 Mar 20:13:23 20:17:19 22° 296° (WNW) 20:21:07 437.568
BRITE-PL 06 Mar 20:16:41 20:21:55 39° 263° (W) 20:26:52 437.365/2234.400
HO-68 06 Mar 20:17:20 20:24:22 59° 259° (WSW) 20:31:26 435.675
COMPASS 1 06 Mar 20:17:40 20:21:48 74° 258° (WSW) 20:25:59 437.405
UWE-3 06 Mar 20:27:44 20:31:43 36° 72° (ENE) 20:35:40 435.000/436.395/437.385
RS-15 06 Mar 20:33:49 20:40:31 20° 102° (ESE) 20:47:54 29.354- 29.394
Oscar 11 06 Mar 20:36:57 20:41:14 75° 75° (ENE) 20:45:32 145.826/435.025
PHONESAT 2.4 06 Mar 20:38:38 20:41:54 31° 201° (SSW) 20:45:08 2401.200-2431.200
GONETS M04 06 Mar 20:49:32 20:57:52 56° 91° (E) 21:06:19
DELFI C3 06 Mar 20:52:10 20:56:12 88° 78° (ENE) 21:00:16 145.870
SEEDS 06 Mar 20:52:44 20:56:13 25° 266° (W) 20:59:39 437.485
HUMSAT D 06 Mar 21:01:49 21:05:36 35° 71° (ENE) 21:09:25 437.325/437.525
CANX-2 06 Mar 21:04:30 21:07:03 15° 270° (W) 21:09:26 2200.000
DX 1 06 Mar 21:08:58 21:13:22 83° 76° (ENE) 21:17:48 434.975-435.025
CUBEBUG 2 06 Mar 21:14:29 21:18:53 57° 260° (W) 21:23:09 437.445
PCSat 06 Mar 21:17:49 21:21:47 20° 318° (NW) 21:25:37 145.827
CUBEBUG 1 06 Mar 21:22:09 21:25:24 21° 66° (ENE) 21:28:46 437.445
ANTELSAT 06 Mar 21:23:11 21:25:02 13° 89° (E) 21:27:07 437.575/2403.000
CUTE 1.7 + AOD 2 06 Mar 21:24:23 21:25:11 10° 273° (W) 21:25:42 437.475
CINEMA 3 06 Mar 21:25:02 21:29:01 27° 265° (W) 21:32:49 145.822/145.860
FUNcube-1 06 Mar 21:31:18 21:35:33 55° 260° (W) 21:39:44 145.935
UKube-1 06 Mar 21:32:48 21:37:05 57° 259° (W) 21:41:24 .
AISAT 06 Mar 21:33:13 21:37:40 62° 73° (ENE) 21:42:07 437.250
ZACube-1 06 Mar 21:34:19 21:38:32 50° 261° (W) 21:42:41 437.345
VELOX 1 06 Mar 21:40:29 21:44:57 72° 75° (ENE) 21:49:26 145.980
QB50P1 06 Mar 21:45:26 21:46:44 11° 88° (E) 21:48:17 145.935-145.965
50 SAT 06 Mar 21:45:33 21:49:31 79° 77° (ENE) 21:53:29 437.505
QB50P2 06 Mar 21:50:18 21:52:21 14° 89° (E) 21:54:35 145.880/145.840
DUCHIFAT 1 06 Mar 22:00:43 22:03:25 17° 91° (E) 22:06:16 145.980
UWE-3 06 Mar 22:05:07 22:08:25 20° 267° (W) 22:11:34 435.000/436.395/437.385
ESTCUBE 1 06 Mar 22:13:22 22:17:54 77° 75° (ENE) 22:22:28 437.505/2401.250
UNISAT 6 06 Mar 22:18:59 22:23:13 52° 100° (E) 22:27:31 437.425
POPSAT HIP 1 06 Mar 22:23:46 22:27:32 31° 96° (E) 22:31:17 437.405
POLYITAN 1 06 Mar 22:25:35 22:29:25 33° 96° (E) 22:33:14 437.675
DANDE 06 Mar 22:36:06 22:41:24 31° 96° (E) 22:45:39 436.750
HUMSAT D 06 Mar 22:38:30 22:41:33 19° 268° (W) 22:44:29 437.325/437.525
CUSAT 1 06 Mar 22:38:43 22:43:56 37° 98° (E) 22:48:00 437.405
RS-15 06 Mar 22:40:30 22:51:24 84° 120° (ESE) 23:02:30 29.354- 29.394
TIGRISAT 06 Mar 22:41:44 22:46:04 89° 249° (WSW) 22:50:26 435.000
NANOSAT C BR1 06 Mar 22:44:49 22:48:58 54° 100° (E) 22:53:04 145.865
GONETS M04 06 Mar 22:47:31 22:55:13 33° 292° (WNW) 23:02:47
BEESAT 3 06 Mar 22:50:52 22:51:23 10° 34° (NNE) 22:52:04 437.485
CUBEBUG 1 06 Mar 22:57:21 23:01:33 39° 262° (W) 23:05:45 437.445
ANTELSAT 06 Mar 22:58:01 23:02:16 58° 287° (WNW) 23:06:34 437.575/2403.000
TISAT 1 06 Mar 22:58:21 23:02:28 48° 72° (ENE) 23:06:36 437.305
BUGSAT 1 06 Mar 23:04:58 23:09:06 68° 101° (E) 23:13:09 437.445
SWISSCUBE 06 Mar 23:10:24 23:12:40 14° 62° (ENE) 23:15:10 437.505
SPROUT 06 Mar 23:10:54 23:15:13 74° 76° (ENE) 23:19:33 437.525
AISAT 06 Mar 23:12:34 23:14:46 13° 271° (W) 23:16:44 437.250
BEESAT 06 Mar 23:17:48 23:20:22 15° 62° (ENE) 23:23:09 436.000
QB50P1 06 Mar 23:18:56 23:23:08 61° 286° (WNW) 23:27:16 145.935-145.965
BEESAT 2 06 Mar 23:20:08 23:22:36 15° 39° (NE) 23:25:08 435.950
VELOX 1 06 Mar 23:20:44 23:22:08 11° 273° (W) 23:23:14 145.980
QB50P2 06 Mar 23:24:31 23:28:39 52° 287° (WNW) 23:32:45 145.880/145.840
DUCHIFAT 1 06 Mar 23:35:32 23:39:31 40° 288° (WNW) 23:43:26 145.980
AIST 2 06 Mar 23:44:10 23:45:50 12° 35° (NE) 23:47:39 435.215
ITUPSAT 1 06 Mar 23:46:34 23:50:32 27° 67° (ENE) 23:54:36 437.325
ESTCUBE 1 06 Mar 23:54:36 23:55:27 10° 274° (W) 23:55:59 437.505/2401.250
UNISAT 6 06 Mar 23:57:03 23:59:40 15° 295° (WNW) 00:02:10 437.425
SO-50 06 Mar 23:59:43 00:04:06 47° 117° (ESE) 00:08:40 436.795
POPSAT HIP 1 06 Mar 23:59:56 00:03:18 23° 292° (WNW) 00:06:34 437.405
POLYITAN 1 07 Mar 00:01:55 00:05:11 22° 293° (WNW) 00:08:22 437.675
DANDE 07 Mar 00:19:19 00:24:42 32° 284° (WNW) 00:28:51 436.750
NANOSAT C BR1 07 Mar 00:22:05 00:24:27 14° 295° (WNW) 00:26:37 145.865
Oscar 19 07 Mar 00:22:24 00:25:54 19° 91° (E) 00:29:34 437.125/150
CUSAT 1 07 Mar 00:22:33 00:26:46 22° 286° (WNW) 00:30:06 437.405
BEESAT 3 07 Mar 00:26:16 00:30:23 62° 54° (NE) 00:34:25 437.485
TISAT 1 07 Mar 00:36:01 00:38:36 15° 270° (W) 00:41:01 437.305
BUGSAT 1 07 Mar 00:42:40 00:44:05 11° 297° (WNW) 00:45:19 437.445
SWISSCUBE 07 Mar 00:45:14 00:50:00 74° 258° (WSW) 00:54:50 437.505
YUBILEINY 07 Mar 00:50:28 00:56:19 20° 59° (ENE) 01:02:33 435.215
BEESAT 07 Mar 00:53:00 00:57:45 67° 259° (W) 01:02:31 436.000
RS-15 07 Mar 00:55:25 01:05:14 35° 328° (NNW) 01:15:08 29.354- 29.394
BEESAT 2 07 Mar 00:57:08 01:01:18 74° 239° (WSW) 01:05:23 435.950
STARS 07 Mar 01:20:44 01:24:36 31° 69° (ENE) 01:28:30 437.465
AIST 2 07 Mar 01:20:59 01:25:16 75° 56° (NE) 01:29:28 435.215
ITUPSAT 1 07 Mar 01:23:59 01:28:20 34° 264° (W) 01:32:41 437.325
KKS-1 07 Mar 01:24:52 01:29:12 52° 72° (ENE) 01:33:34 437.445
SO-50 07 Mar 01:40:58 01:44:54 25° 317° (NW) 01:48:52 436.795
Oscar 19 07 Mar 02:00:40 02:05:40 53° 288° (WNW) 02:10:37 437.125/150
BEESAT 3 07 Mar 02:06:07 02:08:01 13° 250° (WSW) 02:09:42 437.485
ITAMSAT 1 07 Mar 02:09:26 02:14:38 63° 101° (E) 02:19:47 435.822/435.867
Gurwin Techsat 1B 07 Mar 02:09:34 02:14:44 49° 99° (E) 02:19:53 435.225
AO-7 07 Mar 02:16:50 02:19:36 12° 84° (E) 02:23:04 29.400- 29.500
AUBIESAT-1 07 Mar 02:20:19 02:21:53 13° 59° (ENE) 02:23:37 437.475
M-CUBED/EXP-1 PRIME 07 Mar 02:22:03 02:24:02 15° 60° (ENE) 02:26:11 437.505
